When you browse on this site, cookies collect data to enhance your experience and personalize the content and advertising you see.
Visit our Privacy Policy to learn more. By continuing to use the site, you agree to this use of cookies and data.
  • In Lithuania
  • List of Countries
  • For 7 days
  • Water Temperature
  • Satellite Maps
  • Weather Map
  • Weather Widgets
  • user-avatar
    Login

    Hourly Weather Escaldes-Engordany

    Today, 14 December, Friday

    Time Temperature Precipitation Wind Pressure Humidity
    00:00 0°C° 0 mm 3 mps 632 mmHg 91%
    01:00 0°C° 0.5 mm 3 mps 632 mmHg 90%
    02:00 0°C° 0.5 mm 3 mps 633 mmHg 90%
    03:00 +1°C° 0.5 mm 2 mps 633 mmHg 90%
    04:00 +1°C° 0.3 mm 2 mps 633 mmHg 89%
    05:00 +1°C° 0.3 mm 2 mps 633 mmHg 89%
    06:00 +1°C° 0 mm 2 mps 634 mmHg 89%
    07:00 +1°C° 0.2 mm 2 mps 634 mmHg 88%
    08:00 +1°C° 0.2 mm 2 mps 635 mmHg 86%
    09:00 +2°C° 0.2 mm 2 mps 636 mmHg 85%
    10:00 +1°C° 0.1 mm 3 mps 636 mmHg 81%
    11:00 +2°C° 0.1 mm 3 mps 637 mmHg 77%
    12:00 +3°C° 0.1 mm 3 mps 637 mmHg 73%
    13:00 +3°C° 0 mm 3 mps 637 mmHg 73%
    14:00 +3°C° 0 mm 3 mps 637 mmHg 73%
    15:00 +2°C° 0 mm 3 mps 637 mmHg 73%
    16:00 +1°C° 0.1 mm 3 mps 637 mmHg 76%
    17:00 0°C° 0.1 mm 3 mps 637 mmHg 80%
    18:00 -1°C° 0.1 mm 3 mps 637 mmHg 84%
    19:00 -1°C° 0 mm 3 mps 638 mmHg 84%
    20:00 -1°C° 0 mm 2 mps 638 mmHg 84%
    21:00 -1°C° 0 mm 2 mps 638 mmHg 84%
    22:00 -2°C° 0 mm 2 mps 638 mmHg 84%
    23:00 -2°C° 0 mm 2 mps 638 mmHg 84%

    Tomorrow, 15 December, Saturday

    Time Temperature Precipitation Wind Pressure Humidity
    00:00 -2°C° 0 mm 2 mps 639 mmHg 84%
    01:00 -2°C° 0 mm 2 mps 638 mmHg 82%
    02:00 -3°C° 0 mm 2 mps 638 mmHg 80%
    03:00 -3°C° 0 mm 2 mps 638 mmHg 78%
    04:00 -3°C° 0 mm 2 mps 638 mmHg 75%
    05:00 -2°C° 0 mm 2 mps 638 mmHg 71%
    06:00 -2°C° 0 mm 2 mps 638 mmHg 68%
    07:00 -1°C° 0 mm 2 mps 639 mmHg 66%
    08:00 +3°C° 0 mm 1 mps 640 mmHg 64%
    09:00 +4°C° 0 mm 1 mps 640 mmHg 62%
    10:00 +6°C° 0 mm 1 mps 641 mmHg 62%
    11:00 +7°C° 0 mm 1 mps 641 mmHg 61%
    12:00 +9°C° 0 mm 1 mps 641 mmHg 61%
    13:00 +8°C° 0.1 mm 1 mps 641 mmHg 66%
    14:00 +8°C° 0.1 mm 1 mps 640 mmHg 71%
    15:00 +7°C° 0.1 mm 1 mps 640 mmHg 76%
    16:00 +7°C° 0.3 mm 1 mps 640 mmHg 79%
    17:00 +6°C° 0.3 mm 1 mps 639 mmHg 82%
    18:00 +5°C° 0.3 mm 1 mps 639 mmHg 85%
    19:00 +5°C° 0.1 mm 1 mps 639 mmHg 86%
    20:00 +5°C° 0.1 mm 1 mps 639 mmHg 86%
    21:00 +5°C° 0.1 mm 1 mps 639 mmHg 86%
    22:00 +5°C° 0.1 mm 1 mps 639 mmHg 87%
    23:00 +5°C° 0.1 mm 1 mps 639 mmHg 87%

    Day after tomorrow, 16 December, Sunday

    Time Temperature Precipitation Wind Pressure Humidity
    00:00 +5°C° 0.1 mm 1 mps 639 mmHg 88%
    01:00 +5°C° 0.1 mm 1 mps 638 mmHg 89%
    02:00 +5°C° 0.1 mm 1 mps 638 mmHg 90%
    03:00 +4°C° 0.1 mm 1 mps 638 mmHg 91%
    04:00 +4°C° 0.2 mm 1 mps 638 mmHg 92%
    05:00 +4°C° 0.2 mm 1 mps 638 mmHg 92%
    06:00 +4°C° 0.2 mm 1 mps 637 mmHg 93%
    07:00 +4°C° 0.4 mm 1 mps 638 mmHg 92%
    08:00 +5°C° 0.4 mm 1 mps 638 mmHg 92%
    09:00 +5°C° 0.4 mm 1 mps 638 mmHg 91%
    10:00 +5°C° 0.8 mm 1 mps 638 mmHg 91%
    11:00 +4°C° 0.8 mm 2 mps 637 mmHg 90%
    12:00 +5°C° 0.8 mm 2 mps 637 mmHg 90%
    13:00 +5°C° 0.3 mm 2 mps 637 mmHg 89%
    14:00 +4°C° 0.3 mm 3 mps 636 mmHg 87%
    15:00 +4°C° 0.3 mm 3 mps 636 mmHg 86%
    16:00 +3°C° 0.1 mm 2 mps 636 mmHg 88%
    17:00 +2°C° 0.1 mm 2 mps 636 mmHg 91%
    18:00 +2°C° 0.1 mm 1 mps 636 mmHg 93%
    19:00 +1°C° 0.1 mm 2 mps 636 mmHg 92%
    20:00 +1°C° 0.1 mm 2 mps 637 mmHg 91%
    21:00 +1°C° 0.1 mm 2 mps 637 mmHg 90%
    22:00 -1°C° 0.1 mm 2 mps 637 mmHg 90%
    23:00 -1°C° 0.1 mm 2 mps 638 mmHg 89%

    17 December, Monday

    Time Temperature Precipitation Wind Pressure Humidity
    00:00 -1°C° 0.1 mm 3 mps 638 mmHg 89%
    01:00 -1°C° 0 mm 3 mps 638 mmHg 87%
    02:00 -2°C° 0 mm 3 mps 639 mmHg 86%
    03:00 -2°C° 0 mm 3 mps 639 mmHg 84%
    04:00 -2°C° 0 mm 3 mps 639 mmHg 83%
    05:00 -4°C° 0 mm 3 mps 639 mmHg 82%
    06:00 -4°C° 0 mm 3 mps 639 mmHg 81%
    07:00 -2°C° 0 mm 3 mps 640 mmHg 79%
    08:00 -1°C° 0 mm 3 mps 641 mmHg 76%
    09:00 -1°C° 0 mm 3 mps 642 mmHg 73%
    10:00 0°C° 0 mm 3 mps 642 mmHg 69%
    11:00 +2°C° 0 mm 2 mps 643 mmHg 64%
    12:00 +4°C° 0 mm 2 mps 644 mmHg 60%
    13:00 +3°C° 0 mm 2 mps 644 mmHg 61%
    14:00 +3°C° 0 mm 2 mps 644 mmHg 62%
    15:00 +3°C° 0 mm 2 mps 644 mmHg 63%
    16:00 +2°C° 0 mm 2 mps 643 mmHg 67%
    17:00 +1°C° 0 mm 1 mps 643 mmHg 71%
    18:00 -1°C° 0 mm 1 mps 643 mmHg 76%
    19:00 -1°C° 0 mm 1 mps 643 mmHg 73%
    20:00 -1°C° 0 mm 1 mps 643 mmHg 70%
    21:00 -1°C° 0 mm 1 mps 643 mmHg 67%
    22:00 0°C° 0 mm 1 mps 643 mmHg 68%
    23:00 0°C° 0 mm 1 mps 643 mmHg 68%

    18 December, Tuesday

    Time Temperature Precipitation Wind Pressure Humidity
    00:00 0°C° 0 mm 1 mps 642 mmHg 69%
    01:00 0°C° 0 mm 1 mps 642 mmHg 67%
    02:00 -2°C° 0 mm 2 mps 642 mmHg 65%
    03:00 -1°C° 0 mm 2 mps 641 mmHg 63%
    04:00 -2°C° 0 mm 2 mps 641 mmHg 62%
    05:00 -2°C° 0 mm 2 mps 641 mmHg 60%
    06:00 -2°C° 0 mm 2 mps 640 mmHg 58%
    07:00 -1°C° 0 mm 2 mps 640 mmHg 55%
    08:00 +1°C° 0 mm 2 mps 641 mmHg 52%
    09:00 +2°C° 0 mm 2 mps 641 mmHg 49%
    10:00 +4°C° 0 mm 2 mps 641 mmHg 46%
    11:00 +4°C° 0 mm 3 mps 641 mmHg 44%
    12:00 +5°C° 0 mm 3 mps 641 mmHg 41%
    13:00 +6°C° 0 mm 2 mps 641 mmHg 45%
    14:00 +6°C° 0 mm 2 mps 641 mmHg 48%
    15:00 +5°C° 0 mm 2 mps 640 mmHg 51%
    16:00 +4°C° 0.1 mm 2 mps 640 mmHg 54%
    17:00 +4°C° 0.1 mm 1 mps 640 mmHg 57%
    18:00 +3°C° 0.1 mm 1 mps 639 mmHg 60%
    19:00 +3°C° 0 mm 1 mps 639 mmHg 61%
    20:00 +2°C° 0 mm 2 mps 639 mmHg 63%
    21:00 +2°C° 0 mm 2 mps 639 mmHg 64%
    22:00 +1°C° 0 mm 2 mps 639 mmHg 65%
    23:00 +1°C° 0 mm 2 mps 639 mmHg 66%

    19 December, Wednesday

    Time Temperature Precipitation Wind Pressure Humidity
    00:00 +2°C° 0 mm 1 mps 639 mmHg 66%
    01:00 +2°C° 0 mm 1 mps 639 mmHg 69%
    02:00 +2°C° 0 mm 1 mps 639 mmHg 73%
    03:00 +2°C° 0 mm 1 mps 639 mmHg 76%
    04:00 +2°C° 0 mm 1 mps 639 mmHg 79%
    05:00 +1°C° 0 mm 1 mps 639 mmHg 82%
    06:00 +1°C° 0 mm 1 mps 639 mmHg 85%
    07:00 +2°C° 0 mm 1 mps 639 mmHg 83%
    08:00 +2°C° 0 mm 1 mps 640 mmHg 81%
    09:00 +3°C° 0 mm 1 mps 640 mmHg 79%
    10:00 +4°C° 0 mm 1 mps 640 mmHg 76%
    11:00 +4°C° 0 mm 1 mps 640 mmHg 73%
    12:00 +5°C° 0 mm 1 mps 640 mmHg 70%
    13:00 +5°C° 0 mm 1 mps 640 mmHg 71%
    14:00 +5°C° 0 mm 1 mps 640 mmHg 73%
    15:00 +4°C° 0 mm 1 mps 640 mmHg 75%
    16:00 +3°C° 0 mm 1 mps 639 mmHg 80%
    17:00 +2°C° 0 mm 1 mps 639 mmHg 86%
    18:00 +1°C° 0 mm 1 mps 639 mmHg 92%
    19:00 +1°C° 0 mm 1 mps 639 mmHg 91%
    20:00 0°C° 0 mm 1 mps 639 mmHg 90%
    21:00 0°C° 0 mm 1 mps 639 mmHg 89%
    22:00 0°C° 0 mm 1 mps 639 mmHg 88%
    23:00 -1°C° 0 mm 1 mps 639 mmHg 87%
    Show more